Wind_Speed
27 28 26 25 25 26 26 26 26 25 23 22 22 21 20 20 20 19 19 18 18 18 17 16 15 13 13 11 10 10 9 8 6 6 5 4 4 3 4 4 5 6 6 7 7 7 6 6 7 7 7 7 8 8 8 7 7 6 6 6 6 6 6 6 7 7 7 7 6 6 6 6 6 7 7 8 8 9 9 9 8 8 9 8 7
27 28 28 26 25 26 26 27 26 25 24 23 22 22 21 21 21 20 19 20 20 19 18 17 16 15 14 13 12 11 10 9 8 7 6 6 5 4 4 5 6 6 6 7 7 7 6 7 7 8 8 8 8 9 9 8 7 6 6 6 5 5 5 5 5 6 6 5 5 5 5 4 5 5 6 7 8 9 9 10 9 9 10 10 9
26 28 29 29 27 27 26 26 26 25 24 23 23 23 22 22 21 20 20 21 21 20 20 18 17 16 15 14 14 13 12 11 9 8 7 7 6 5 5 5 6 6 7 7 7 7 7 7 7 8 8 9 9 10 10 10 8 7 6 6 6 5 5 5 4 4 4 4 4 4 4 4 4 4 4 5 7 8 9 10 10 10 11 12 12
26 27 29 30 30 29 27 27 27 26 25 24 24 23 23 22 22 21 22 22 21 21 21 20 18 17 16 16 16 15 14 13 11 9 8 8 7 7 6 6 7 7 7 7 7 7 7 7 7 8 8 8 9 9 10 11 11 10 9 8 7 7 6 5 5 4 4 4 3 3 3 4 4 4 4 5 6 7 8 9 10 10 11 13 13
26 27 29 31 31 31 30 29 28 27 27 26 25 25 24 23 23 23 23 23 22 22 22 21 20 19 18 18 18 17 16 15 13 11 10 9 8 8 8 8 8 9 9 9 9 9 8 7 7 7 7 8 8 8 10 11 12 13 12 11 10 9 8 7 6 6 5 5 5 6 6 6 7 7 7 8 8 9 10 11 12 13 14 15 16
25 28 29 29 30 31 32 31 29 29 29 28 28 27 26 25 24 24 24 23 23 23 23 23 22 21 21 20 20 19 18 16 15 13 12 10 9 10 10 10 9 10 10 11 11 11 10 9 8 7 7 7 7 8 8 9 11 12 13 13 13 12 11 10 9 9 8 8 9 9 10 10 10 10 10 10 11 12 13 14 15 16 17 19 20
24 27 28 29 29 29 31 31 31 31 31 30 30 29 28 27 26 25 25 24 24 24 24 24 23 23 23 22 22 21 20 18 17 15 14 12 11 11 11 12 11 11 12 12 12 12 12 12 11 10 9 8 8 8 8 9 9 11 12 13 14 14 13 12 12 11 11 11 11 11 11 11 11 11 11 10 11 12 13 14 15 17 17 18 20
24 25 26 27 27 28 29 30 32 33 32 32 31 30 30 29 27 27 26 25 24 25 25 25 25 24 24 24 23 23 21 20 18 17 17 15 14 13 13 13 13 13 13 13 13 13 13 13 13 13 12 12 11 11 10 10 10 10 11 12 13 13 13 12 12 12 12 12 12 11 11 10 10 10 9 9 10 11 11 12 13 16 17 18 18
26 25 24 25 26 27 28 30 32 33 33 33 32 32 31 30 29 28 27 26 25 26 26 25 25 25 25 25 24 24 23 21 20 20 19 18 17 15 14 13 14 14 13 14 14 14 14 14 14 14 14 14 14 14 14 13 13 13 13 13 12 12 12 12 11 11 11 11 11 10 9 9 9 8 8 8 8 9 10 12 13 15 16 18 19
28 27 26 26 26 27 28 29 30 32 33 33 34 34 33 32 31 30 29 28 27 26 25 25 25 25 24 25 25 24 24 23 22 22 22 21 20 18 16 15 15 14 14 14 14 14 14 14 14 14 14 14 15 15 15 15 14 14 14 13 13 12 12 12 11 11 10 10 10 9 8 8 8 7 7 8 8 9 10 12 14 15 16 17 18
32 30 28 28 28 28 28 29 30 31 33 35 35 36 35 34 33 31 30 29 28 27 26 24 24 24 24 24 25 25 25 24 23 23 24 23 22 20 19 17 17 16 15 15 15 15 15 15 14 14 14 14 15 15 15 15 15 15 14 14 13 12 12 12 11 11 10 9 9 9 9 9 9 9 9 10 10 10 11 13 14 15 16 16 17
32 32 31 30 30 31 31 31 31 32 34 35 37 38 37 36 35 34 32 31 30 29 28 26 25 24 24 24 24 24 25 25 24 24 26 26 24 23 21 20 19 17 17 16 16 16 16 16 15 15 14 14 15 15 15 15 16 15 14 14 13 13 12 12 12 11 10 10 11 11 11 11 11 11 11 11 12 12 12 13 14 15 16 17 17
26 27 30 32 33 35 34 33 33 34 34 35 36 38 38 38 37 36 35 35 34 32 30 28 27 26 26 25 24 24 25 25 24 24 26 27 26 25 23 22 20 19 18 17 17 17 17 17 17 16 16 16 16 16 16 16 17 16 15 14 14 14 13 13 13 13 12 12 12 13 14 13 12 13 13 12 13 13 13 14 14 15 15 16 17
25 26 29 31 34 37 37 35 34 34 35 35 35 36 37 38 38 38 38 37 35 34 32 31 30 29 28 26 25 25 25 26 24 25 27 28 28 27 25 23 22 21 20 19 18 18 18 18 18 18 18 17 17 17 17 18 18 17 17 16 15 15 15 14 14 14 14 14 14 15 16 15 14 15 16 15 15 15 16 16 16 16 16 17 18
30 31 32 33 35 36 35 33 32 32 35 35 35 35 35 36 37 38 37 37 36 35 34 33 32 31 30 29 27 26 26 26 26 25 27 29 29 28 26 24 23 22 22 21 20 20 20 19 19 20 20 20 19 19 20 20 20 19 19 18 18 17 16 16 16 16 16 15 15 16 17 17 17 18 19 19 18 18 19 19 20 20 19 19 20
35 35 36 38 39 38 35 31 29 30 32 34 35 36 35 35 36 36 36 35 35 34 34 34 34 33 32 31 29 28 27 28 27 27 28 29 30 29 27 25 24 24 24 24 23 22 21 20 20 21 21 21 21 22 22 22 22 21 20 20 20 19 18 18 19 18 18 17 17 17 18 19 19 20 21 22 22 21 21 22 23 23 22 21 23
40 39 40 41 41 41 40 35 31 30 31 31 33 36 37 37 37 37 36 34 33 33 33 34 35 34 33 33 32 30 30 30 29 29 29 30 30 29 28 27 26 25 25 25 25 24 23 22 22 22 22 23 24 24 25 25 24 23 22 22 22 21 21 21 21 21 21 20 19 18 19 21 22 23 24 25 26 26 24 23 25 26 24 23 24
44 43 44 44 43 43 43 40 36 35 35 34 33 35 38 40 38 37 37 33 31 31 31 32 34 34 34 34 34 34 34 33 32 31 31 31 31 30 29 28 27 26 26 26 26 26 26 25 24 23 22 23 25 26 26 27 27 26 25 24 24 23 23 24 24 23 23 23 22 22 22 23 25 26 26 27 28 29 28 27 27 28 26 24 24
47 47 47 48 47 46 45 43 41 40 39 39 38 37 37 38 37 36 36 34 31 29 29 30 31 33 34 35 34 35 36 36 35 34 34 34 33 32 31 29 28 27 27 27 27 27 27 27 26 25 24 24 26 26 27 27 28 28 27 26 25 25 26 28 28 26 26 25 25 25 25 26 27 28 29 30 30 30 30 30 30 30 28 26 25
52 51 51 51 52 51 48 46 45 44 42 43 43 43 41 39 37 35 34 34 32 29 29 29 29 31 34 35 35 36 36 36 36 36 36 36 35 35 33 31 30 29 29 29 29 29 29 29 29 28 27 27 27 27 27 27 28 28 27 26 25 27 29 30 30 29 28 27 27 27 28 29 30 30 31 31 32 32 31 32 32 31 30 28 26
57 55 55 55 55 55 53 52 50 48 46 44 45 46 47 44 40 36 34 35 34 32 30 30 30 31 32 33 34 35 36 36 37 38 37 37 37 38 36 34 33 32 31 31 31 31 30 30 31 31 31 30 29 28 28 28 28 28 26 25 26 28 30 31 31 31 30 29 29 28 28 30 31 32 32 32 32 32 32 32 32 31 30 29 28
60 58 57 57 57 56 55 54 53 51 50 47 45 45 46 46 44 40 37 35 35 35 35 33 32 32 32 33 33 34 34 35 37 37 37 37 38 39 39 38 37 36 34 33 32 32 33 33 33 33 33 33 32 31 30 29 29 28 26 26 27 29 30 31 31 31 30 30 29 28 28 30 30 31 32 32 32 32 31 31 31 31 30 29 28
60 60 58 58 58 57 55 53 52 52 52 50 48 46 46 46 45 43 41 38 35 36 38 37 35 34 33 33 34 35 35 36 36 37 37 36 38 40 41 41 40 39 38 36 35 35 35 35 36 36 35 35 34 34 33 31 30 29 28 28 29 29 30 30 30 30 30 30 29 28 29 30 31 31 31 32 32 33 31 30 30 31 31 30 29
59 59 59 58 57 57 55 53 51 50 50 50 48 48 47 46 45 44 43 41 38 36 37 38 38 38 36 35 35 36 37 37 37 37 37 36 37 39 41 42 43 42 41 40 39 38 38 39 39 38 37 37 37 37 36 34 32 31 31 31 31 31 30 30 30 31 31 31 31 30 30 31 32 32 32 33 34 34 33 32 31 31 31 31 30
59 58 58 58 57 56 55 53 52 50 49 48 48 47 46 45 44 43 42 41 40 40 39 38 35 35 36 38 38 38 38 38 38 38 38 37 37 38 40 42 43 44 43 42 42 42 41 41 41 41 40 40 40 40 38 37 35 33 33 33 33 32 32 32 33 33 33 32 33 33 33 33 34 34 34 35 35 35 34 34 32 32 32 32 32
60 59 59 58 57 56 55 54 53 52 50 49 49 49 48 46 44 43 42 41 40 41 42 41 37 33 33 36 40 41 40 40 39 39 39 39 39 39 40 41 43 44 44 43 43 43 42 42 42 43 43 42 41 41 39 37 35 33 32 32 32 32 32 33 33 34 33 32 32 32 33 33 34 34 34 34 35 35 34 33 32 32 32 33 34
62 62 61 60 58 58 56 55 54 54 53 51 50 50 50 50 47 45 44 43 42 41 42 41 40 37 35 36 39 42 43 42 40 40 41 42 41 42 42 42 43 44 44 43 42 42 42 42 42 43 43 42 41 39 36 33 31 31 30 31 30 30 31 31 31 31 30 30 30 30 30 30 31 31 31 32 32 33 33 33 31 31 32 33 34
65 65 64 63 61 60 59 58 57 56 55 54 52 51 51 51 50 48 46 45 44 43 42 40 38 37 37 36 37 39 43 44 43 41 42 43 42 42 43 43 42 42 41 41 40 38 38 38 39 40 40 39 36 33 31 29 29 29 29 29 29 28 29 29 29 28 27 27 27 26 26 27 27 28 29 29 29 30 32 32 31 31 32 33 33
67 67 67 66 65 64 63 62 61 59 57 55 54 54 53 52 51 50 49 47 45 45 44 42 39 39 39 37 35 35 39 44 45 43 42 41 41 41 41 41 40 40 40 40 38 34 33 34 35 36 36 34 32 30 29 28 28 28 28 27 27 27 28 28 28 26 25 25 25 25 25 25 25 26 28 28 29 29 31 31 30 30 31 32 32
68 68 68 69 68 68 67 66 64 63 61 59 57 56 54 54 52 51 49 48 47 47 46 43 42 42 41 38 36 35 35 39 44 45 43 41 41 42 42 40 40 40 40 40 37 33 32 32 33 33 33 33 31 29 28 28 28 27 26 26 26 26 26 27 27 26 25 25 25 25 26 25 26 27 28 29 29 30 31 31 30 29 30 31 31
70 70 70 70 71 70 70 69 68 67 65 63 61 59 57 56 55 53 51 50 48 48 47 45 43 43 42 40 39 37 34 35 40 44 45 43 40 40 41 41 40 39 38 39 36 32 31 31 30 30 31 31 29 28 27 26 26 24 24 24 24 25 25 26 26 26 25 25 25 26 26 27 27 28 29 30 30 31 32 32 31 29 29 30 31
72 71 71 71 72 72 72 71 71 70 69 67 65 63 61 60 58 56 54 52 51 49 49 47 45 44 43 41 40 39 38 36 37 39 42 42 39 39 41 41 37 35 36 37 33 29 29 28 27 27 28 28 27 26 25 25 25 24 24 24 24 25 25 25 26 27 27 26 26 26 27 28 28 29 31 32 33 33 34 34 33 32 30 30 31
74 74 73 73 73 73 74 74 73 72 72 71 70 68 65 63 61 60 57 55 53 52 51 50 48 46 44 43 42 41 41 40 39 37 38 39 39 40 42 40 35 34 36 36 32 29 28 27 25 26 27 27 26 26 25 24 25 25 26 26 26 26 26 27 28 28 28 28 28 29 29 29 30 31 32 33 34 35 35 35 36 36 34 33 32
75 75 75 75 75 74 75 75 75 74 74 74 73 72 70 67 65 63 61 58 56 54 53 52 51 49 46 44 43 43 43 43 42 39 38 38 39 41 44 42 38 36 37 37 34 32 29 27 26 27 28 27 27 27 26 25 26 27 27 28 29 29 30 30 30 30 30 31 32 33 32 33 33 32 32 33 34 35 35 35 37 38 38 38 36
75 75 76 76 76 76 76 76 76 76 76 76 75 74 73 71 69 67 65 62 59 57 55 54 54 52 49 47 45 45 45 44 42 41 40 41 40 41 43 43 40 39 39 38 37 35 33 31 31 31 30 29 29 29 28 28 28 29 29 30 32 32 33 33 33 33 32 33 35 36 37 37 36 35 34 34 34 34 34 35 37 38 39 40 41
77 76 77 77 77 78 78 78 78 77 78 78 78 77 75 74 72 70 68 66 64 61 58 57 56 55 53 50 48 47 46 46 44 43 43 43 43 42 42 42 42 42 41 40 39 38 37 37 36 35 34 33 32 32 32 31 31 32 32 34 35 35 36 36 36 35 36 37 39 41 42 41 39 38 37 36 35 35 35 36 38 40 41 42 43
78 77 78 78 78 79 79 79 79 79 80 80 80 79 77 76 75 74 72 70 68 65 63 61 59 58 56 54 52 50 49 48 47 45 44 45 45 45 45 44 44 45 45 45 44 42 41 40 40 39 38 37 35 35 35 35 35 35 37 38 39 39 39 39 40 42 44 44 45 45 44 43 43 43 42 41 39 38 38 38 38 40 42 44 45
77 78 78 79 80 80 80 80 80 80 80 80 80 79 79 78 78 77 75 73 71 69 67 65 63 62 60 58 56 54 51 50 49 47 46 46 47 48 48 47 46 46 47 49 49 48 45 44 43 43 42 40 39 38 38 38 39 39 40 41 42 42 41 43 45 46 46 46 45 44 43 43 44 45 45 45 45 45 44 43 42 41 42 44 46
74 75 76 77 79 81 81 81 81 81 81 81 81 80 80 80 80 79 77 76 74 72 70 68 66 65 64 61 59 57 54 53 51 50 49 49 49 49 49 49 47 46 48 51 52 51 49 47 47 46 45 43 42 42 42 42 42 43 43 45 45 44 43 45 47 45 41 39 40 40 39 38 38 40 42 43 44 46 48 49 49 48 48 48 47
71 72 73 74 76 78 80 81 81 82 82 82 82 82 82 82 82 81 80 79 77 75 73 71 69 67 66 64 61 59 57 56 55 53 52 52 52 51 50 49 48 49 51 53 53 53 52 51 49 48 47 45 45 45 45 44 44 44 45 47 48 46 45 47 47 43 40 39 39 40 38 36 36 38 39 40 42 44 46 48 49 51 51 50 49
70 70 71 72 73 75 77 79 80 82 83 83 84 83 83 83 83 83 82 81 79 77 76 74 71 69 67 65 63 62 60 58 57 56 55 55 54 53 52 52 51 51 51 52 53 54 54 54 52 50 49 48 48 47 47 47 46 46 46 46 47 47 47 47 46 43 42 42 41 41 40 39 40 41 41 41 44 47 47 47 48 50 51 52 52
70 70 70 70 71 71 72 74 77 79 81 83 85 85 84 84 84 84 83 83 81 80 79 77 74 72 69 66 65 64 62 60 58 57 58 57 56 55 54 53 53 52 50 50 53 55 53 53 53 52 51 51 50 49 48 49 48 47 47 46 46 47 48 48 46 44 44 43 43 43 43 43 43 44 44 44 45 48 49 49 49 51 52 53 54
67 68 69 69 69 68 68 70 73 76 78 80 83 85 86 86 85 85 84 84 83 83 81 79 77 75 72 69 67 66 64 62 59 57 57 58 58 58 56 54 53 52 50 50 53 55 55 53 53 52 52 51 51 51 50 50 49 49 49 48 48 48 48 48 48 47 45 44 45 46 46 46 47 47 46 46 47 48 50 50 50 52 53 53 54
62 64 65 66 67 67 66 68 70 72 74 76 79 82 85 87 87 86 86 85 84 84 83 82 80 78 75 73 70 68 65 63 61 58 57 57 58 59 58 56 55 54 53 51 52 54 56 55 55 54 53 53 53 52 52 51 51 51 51 50 49 47 47 47 48 48 47 47 47 48 48 49 50 49 49 49 49 49 50 51 52 54 55 54 54
54 56 58 61 63 64 65 66 67 68 69 72 74 77 81 85 87 88 87 86 85 85 85 84 82 81 78 76 73 70 67 65 63 61 58 57 58 59 58 57 57 58 57 54 53 54 55 55 55 55 54 54 54 53 52 52 52 52 52 52 50 49 47 46 47 47 48 49 50 50 49 49 50 51 52 53 53 51 51 52 54 55 57 57 58
48 50 52 55 58 60 62 64 65 64 65 67 69 72 76 80 84 87 88 87 86 85 85 85 84 83 81 79 76 74 70 67 65 63 60 57 57 58 58 57 58 60 59 57 56 57 56 55 55 55 54 52 52 51 51 51 51 51 51 50 50 48 46 46 46 47 48 49 50 50 50 50 50 51 53 55 55 53 52 53 55 56 58 60 61
46 48 50 52 55 57 60 61 62 62 62 63 64 67 71 75 79 83 87 88 87 86 85 85 84 84 83 81 79 77 74 70 66 64 61 58 56 56 57 57 57 57 58 57 57 58 58 55 55 55 52 49 47 47 46 47 48 48 47 47 47 47 46 46 46 46 47 48 49 50 51 51 51 51 52 54 55 54 53 53 54 57 60 61 62
46 48 50 52 54 55 57 59 59 59 60 60 61 63 66 69 74 78 83 86 88 87 86 84 84 83 83 83 81 79 77 74 70 65 63 60 56 55 56 56 54 54 55 57 58 60 58 54 51 50 47 44 42 42 43 44 45 45 46 46 46 46 46 46 46 47 47 48 49 50 51 52 52 53 53 54 54 54 54 54 55 58 61 62 61
46 48 50 53 54 55 57 58 59 59 58 59 59 59 61 64 68 73 77 82 86 88 87 85 83 82 82 82 82 81 79 77 73 68 65 63 59 55 55 54 52 52 54 56 57 57 55 50 47 45 43 41 40 40 41 42 43 44 45 45 46 46 47 47 47 47 48 48 49 50 51 52 53 53 54 55 55 55 57 58 59 59 61 63 63
48 49 51 52 55 56 58 58 59 59 59 58 58 58 58 59 62 67 72 77 82 86 87 85 84 82 81 81 81 81 80 79 76 71 67 65 61 56 53 52 52 53 54 55 53 51 48 43 41 40 39 38 37 38 40 41 43 44 45 45 46 46 47 47 48 48 49 49 50 51 52 53 54 54 55 56 56 57 59 61 62 62 63 63 62
49 50 50 50 51 54 57 58 59 59 59 59 58 57 56 56 57 61 66 71 76 82 85 85 84 82 80 79 79 80 79 78 77 74 70 67 63 56 50 48 49 51 54 54 53 49 44 40 38 38 38 37 38 39 40 41 42 43 44 45 46 46 47 47 48 48 49 50 51 51 53 54 54 55 56 57 57 58 60 63 63 63 62 59 57
Wind_Direction
222 221 221 220 217 215 217 220 221 219 215 214 216 218 218 218 218 219 220 223 225 226 229 232 234 235 238 241 243 246 248 248 249 249 244 235 224 209 206 213 213 213 216 221 227 231 231 231 231 230 229 221 212 207 208 208 207 206 202 198 195 190 191 192 187 187 190 192 193 196 202 203 201 206 211 215 222 230 235 241 245 247 250 246 242
224 224 224 224 224 222 221 223 225 225 222 219 218 220 220 221 221 221 222 225 227 227 229 231 233 234 235 236 238 240 244 245 246 247 244 238 234 222 212 214 213 209 209 212 216 221 224 225 225 225 225 223 217 210 209 208 203 199 193 189 187 186 188 190 188 183 180 182 187 191 196 202 207 213 218 221 227 234 240 246 250 252 255 254 248
223 225 225 225 226 227 226 228 229 230 229 227 225 225 224 225 225 224 225 228 229 231 231 231 231 233 233 234 235 237 239 242 243 244 242 238 236 231 223 222 221 215 211 210 209 212 215 217 220 221 222 223 221 216 213 212 208 202 195 188 183 184 187 186 182 175 168 166 167 170 177 187 200 212 224 229 233 240 246 252 257 259 261 264 262
220 223 225 225 226 227 228 230 232 233 234 234 233 232 231 230 229 228 229 230 232 234 235 234 233 232 233 234 235 236 237 238 240 241 242 239 236 233 229 229 229 224 219 216 212 209 211 214 217 218 220 222 224 222 220 219 217 214 212 208 203 202 202 199 196 192 188 186 188 195 203 211 221 229 240 244 245 251 259 265 270 273 274 275 276
220 222 225 226 226 227 228 229 232 234 235 235 236 236 237 236 234 232 232 233 234 236 237 237 236 235 234 234 236 237 237 238 239 240 242 240 236 235 233 231 231 229 227 225 220 215 212 213 216 218 219 220 221 223 223 224 224 224 224 225 226 227 227 227 228 230 233 235 240 247 252 255 259 263 265 267 268 270 274 278 280 284 287 287 286
221 223 225 225 225 228 229 230 232 235 236 237 237 236 237 238 238 237 236 235 236 238 240 240 239 239 238 237 237 238 239 239 239 240 241 241 238 235 233 232 231 231 232 230 228 224 220 217 215 216 220 221 221 222 222 223 226 227 229 233 236 239 243 246 249 252 255 257 260 263 266 270 273 275 276 276 277 278 279 282 284 285 287 289 290
222 225 229 229 227 228 230 231 233 236 238 239 240 239 238 239 240 241 241 239 239 240 242 243 243 243 242 242 242 242 242 241 242 242 243 242 240 236 234 233 231 231 232 233 231 230 229 226 223 221 221 222 223 225 225 224 225 227 230 233 237 241 245 250 254 257 261 264 266 268 271 275 278 281 284 285 285 286 286 286 287 287 287 287 288
228 229 233 235 233 232 232 231 233 235 238 241 244 245 244 242 242 244 246 245 243 243 244 244 245 246 247 247 247 247 246 245 245 245 245 244 243 241 238 236 235 234 233 234 234 232 231 232 231 230 229 227 225 226 227 228 228 229 231 233 236 240 243 247 252 256 260 264 268 271 274 277 280 285 293 298 298 298 297 293 290 290 291 293 296
233 230 232 236 238 236 235 235 235 236 237 239 242 245 247 247 246 246 247 247 247 247 247 248 249 250 251 252 252 252 252 250 249 248 248 246 245 245 244 243 242 240 238 238 238 236 234 234 234 234 235 235 234 232 231 232 233 234 236 237 239 241 244 247 250 254 259 264 269 274 277 279 282 288 297 301 301 299 296 293 291 291 294 299 302
234 231 229 232 235 236 237 237 238 238 239 240 241 242 245 247 247 246 247 248 250 251 252 253 254 255 256 257 257 258 258 257 255 254 253 251 249 249 248 248 247 247 245 244 243 242 241 239 238 237 238 240 241 240 239 239 239 239 240 242 244 245 247 249 251 254 258 264 269 274 278 280 283 289 294 294 294 291 288 288 290 294 299 302 304
234 233 232 231 233 236 236 236 236 238 239 240 241 242 243 245 247 248 249 250 252 253 254 255 256 258 260 261 262 263 263 263 261 260 259 258 256 254 252 252 252 252 252 250 249 249 248 246 244 242 240 242 244 245 245 244 244 243 244 245 246 248 249 251 253 254 257 262 268 273 276 279 283 287 289 290 291 289 287 288 291 295 300 303 304
235 235 234 234 235 236 234 233 232 233 236 238 239 240 241 243 245 247 249 250 251 252 253 254 255 256 258 259 262 264 265 265 264 264 264 264 263 261 258 257 256 257 257 256 254 254 254 253 251 248 244 244 246 247 248 248 248 248 247 247 246 248 250 253 255 258 260 264 268 272 275 279 284 286 287 290 291 290 290 291 292 296 299 302 304
244 242 238 235 237 238 237 236 234 232 233 236 238 240 240 240 242 243 245 247 249 250 251 252 252 253 253 255 257 259 261 262 263 263 265 267 267 265 264 262 261 261 262 261 259 258 257 257 256 253 249 247 248 249 248 249 251 252 251 249 248 249 251 254 257 259 262 265 269 272 275 279 282 283 285 288 290 292 294 295 296 298 301 303 304
250 251 245 237 237 239 241 243 245 244 243 242 242 243 243 242 241 241 242 244 246 249 251 252 252 253 254 255 256 257 259 261 261 261 262 265 267 267 267 266 266 266 266 265 263 261 259 258 257 256 254 252 251 251 251 251 253 255 255 254 253 254 256 258 260 262 263 266 269 272 275 279 280 281 283 287 289 291 294 297 300 302 304 306 306
249 250 249 245 243 243 243 245 249 253 252 250 249 251 251 249 246 244 242 243 245 247 250 252 253 254 255 255 256 258 261 262 262 262 263 264 266 268 268 269 268 268 268 268 266 263 261 260 259 257 256 255 253 253 254 254 255 256 258 258 258 259 262 264 265 266 268 269 271 273 276 279 280 281 283 286 289 291 293 296 298 300 304 306 305
249 250 251 252 252 253 253 252 253 256 255 250 248 252 254 255 255 253 249 246 246 248 250 253 254 254 255 256 255 256 257 259 261 261 262 264 265 267 269 269 268 268 268 269 268 267 265 263 261 259 258 257 255 254 255 256 257 257 257 259 261 262 264 266 268 270 272 272 273 275 277 280 282 284 286 289 291 291 293 295 295 297 302 303 300
250 249 250 252 255 257 259 259 260 261 259 252 247 247 248 248 252 255 253 249 246 247 248 251 252 254 255 255 255 255 254 255 256 257 259 261 263 266 267 267 267 267 267 267 268 268 268 265 263 261 259 258 257 256 256 258 259 258 258 259 261 264 266 267 268 270 272 272 273 275 278 282 286 287 289 291 292 292 293 292 292 294 298 299 297
249 250 250 252 253 255 256 259 260 261 261 257 253 250 246 243 246 250 250 248 248 246 246 248 250 251 252 252 252 253 253 252 252 252 254 256 258 260 262 263 265 265 266 266 266 266 267 266 264 261 260 259 258 257 257 259 260 261 260 259 260 264 268 268 268 269 271 273 275 276 279 284 287 289 290 290 291 292 292 291 290 292 295 297 296
247 249 250 251 253 254 256 258 260 263 265 262 259 255 249 246 250 252 249 247 249 248 246 247 248 248 250 250 250 251 252 253 252 252 252 253 255 255 256 257 259 261 263 264 264 263 264 265 265 263 261 260 259 259 259 259 261 262 262 261 262 265 267 269 269 269 270 273 276 279 282 284 285 286 287 288 288 288 289 290 290 291 292 294 293
244 246 249 250 252 255 256 257 259 262 266 266 264 263 259 257 261 264 258 252 251 251 249 248 247 247 248 249 250 251 252 253 254 254 254 254 255 255 254 254 254 255 258 259 260 261 262 263 263 264 263 261 260 259 259 260 262 263 264 265 265 264 265 268 270 271 272 273 276 279 282 283 283 282 282 283 284 285 285 286 288 290 291 292 292
244 245 246 248 250 253 254 256 258 259 261 264 266 267 266 265 266 267 265 259 255 253 253 251 248 246 247 248 249 250 251 252 253 253 253 254 256 257 256 255 253 252 253 255 257 259 260 260 261 261 262 262 261 260 260 261 263 266 268 269 268 266 266 268 271 273 275 276 278 278 279 279 279 279 280 280 281 281 282 284 286 287 290 291 291
244 245 245 247 249 251 253 255 256 256 257 258 261 263 266 267 264 262 263 261 256 252 253 252 250 248 247 247 248 248 249 250 250 251 252 252 254 256 256 256 255 254 253 253 254 257 257 258 258 258 258 260 262 262 263 263 265 268 271 271 270 269 269 271 274 276 278 279 279 278 277 276 276 277 278 279 280 280 281 283 284 286 287 287 287
243 244 245 246 247 249 251 253 254 255 255 255 256 259 263 265 265 263 262 260 256 253 252 252 251 250 249 248 249 248 248 249 249 249 251 251 252 253 254 255 255 254 254 253 253 255 256 256 256 257 257 259 261 263 264 264 266 269 271 271 270 270 271 274 276 279 279 280 279 277 277 277 277 278 278 279 279 279 280 280 281 282 283 284 284
241 242 243 244 245 247 249 249 250 252 254 254 256 259 261 263 265 265 263 261 258 257 256 253 251 250 249 249 249 250 251 251 250 250 251 251 252 252 253 253 253 253 253 253 253 254 256 257 257 257 258 259 261 262 264 265 266 268 268 269 270 271 273 275 277 277 277 278 279 279 278 278 278 278 279 279 279 280 281 281 280 279 279 280 281
240 240 241 242 243 244 245 246 247 248 249 250 251 254 257 260 263 264 263 262 259 258 259 257 254 254 254 251 249 251 253 254 253 253 253 253 253 253 253 254 254 253 252 252 254 255 256 258 259 259 259 259 260 261 263 265 265 266 266 268 270 272 273 273 273 274 275 276 276 277 277 277 278 279 279 280 281 282 283 283 283 281 279 278 277
241 240 240 240 241 241 242 243 244 245 246 247 247 249 251 255 258 260 260 260 259 258 258 257 256 257 259 255 250 250 252 255 255 255 254 253 252 251 252 253 255 254 252 250 252 254 256 259 260 261 260 260 261 262 264 265 266 267 268 268 269 269 269 270 270 271 273 274 274 275 276 277 278 279 280 281 282 284 285 285 286 284 282 280 279
241 241 241 240 239 240 240 240 242 243 244 245 247 247 249 251 254 257 258 259 259 258 259 258 257 257 259 258 254 250 250 253 254 254 254 253 252 251 252 252 252 253 252 251 250 252 255 258 261 262 263 263 264 266 267 267 267 267 266 266 266 267 267 268 269 270 271 271 272 274 275 276 278 279 280 281 282 284 286 288 288 287 285 284 284
242 242 242 241 240 239 239 239 240 241 242 244 245 247 248 250 251 253 255 256 257 258 260 261 263 263 262 261 259 255 252 251 252 254 255 255 254 256 256 254 252 252 252 251 250 251 254 259 263 265 266 267 267 267 267 266 264 262 262 263 265 266 267 267 267 268 269 270 271 273 275 276 277 279 280 281 282 283 284 285 287 288 288 288 288
244 243 242 242 241 240 240 239 239 239 240 242 243 245 247 249 250 251 252 253 255 257 259 261 264 264 262 260 261 261 257 252 251 253 255 253 253 255 255 254 254 255 254 252 250 251 255 259 262 264 264 263 261 260 260 259 259 260 261 263 264 266 267 268 269 268 268 270 272 274 276 277 278 279 280 280 281 281 281 282 284 285 287 289 290
245 244 244 244 243 242 241 241 240 239 239 240 241 243 245 247 249 250 251 252 252 254 256 258 260 262 261 259 258 260 259 255 251 251 252 252 252 252 249 246 248 252 254 252 251 250 251 253 256 258 258 256 254 253 253 255 256 259 261 263 264 265 266 268 269 269 269 270 272 274 276 278 280 281 281 282 282 281 281 282 283 284 286 288 289
244 245 245 245 245 244 243 242 242 241 240 240 240 241 242 244 246 248 249 250 251 252 253 256 258 259 260 260 258 257 257 255 252 250 250 251 252 252 248 245 246 249 253 254 253 250 247 245 248 252 251 250 251 251 252 254 256 258 259 261 262 261 261 262 264 265 266 267 268 271 274 276 278 279 280 281 282 282 282 283 283 284 284 286 287
245 244 244 245 246 246 246 245 243 243 242 241 241 240 240 242 244 246 246 248 249 250 251 253 255 257 258 259 259 257 255 254 252 250 251 252 251 248 248 249 250 249 250 252 253 250 244 239 241 245 246 246 249 251 252 253 256 258 259 259 259 258 257 257 258 260 262 263 264 266 269 271 273 275 277 278 280 281 282 284 285 285 284 284 285
246 245 244 244 245 246 247 247 246 245 244 243 243 242 241 241 242 244 245 246 247 248 249 250 251 253 256 257 257 257 256 254 253 253 255 256 252 246 244 247 247 244 243 245 247 246 243 239 239 243 245 245 247 250 251 253 256 259 260 262 263 262 260 259 259 260 262 264 264 264 265 266 268 269 271 273 275 277 280 282 284 285 285 284 283
247 246 245 245 244 245 246 247 248 248 247 246 245 244 243 242 242 242 243 244 245 246 247 248 249 250 252 254 255 256 255 255 255 255 256 257 255 249 245 245 244 242 242 243 243 245 248 248 247 247 248 248 248 250 251 253 254 257 259 262 263 264 263 261 260 260 260 262 265 265 265 264 265 265 267 270 271 274 277 280 282 283 284 285 284
248 247 246 246 245 244 244 245 247 248 248 248 247 246 245 244 243 243 243 243 244 244 245 246 248 249 250 251 252 254 254 254 254 254 254 255 255 252 250 248 246 245 244 244 243 244 248 250 248 249 250 251 251 252 253 254 255 257 259 260 262 263 263 262 261 260 259 260 261 262 261 261 262 262 263 266 269 273 276 278 280 281 282 283 283
248 248 247 246 245 245 244 244 245 246 247 248 249 248 247 246 246 245 244 244 244 244 244 244 246 248 250 250 251 251 253 253 253 251 251 252 253 252 251 251 249 248 246 244 242 241 244 247 247 248 250 252 253 255 257 258 260 261 262 263 264 265 266 267 268 266 263 260 259 261 263 265 267 269 269 270 275 280 282 282 283 283 283 282 281
250 249 248 248 247 245 245 244 244 244 246 247 248 249 249 248 247 246 246 245 245 245 244 244 244 246 247 249 249 249 250 251 252 251 249 250 251 251 251 251 251 251 251 249 245 243 243 246 249 250 252 253 255 257 259 262 264 265 266 267 267 267 268 270 270 268 268 268 268 270 273 274 274 273 270 268 271 276 280 282 281 281 283 283 282
253 251 250 249 248 247 245 245 244 244 244 245 247 248 249 249 249 248 247 247 247 246 246 245 245 245 245 247 248 248 248 250 251 251 249 248 249 250 251 251 252 254 255 252 249 247 246 247 249 251 253 254 256 257 259 261 263 265 267 268 269 269 270 270 270 272 275 277 277 276 276 276 275 274 272 269 268 272 279 283 282 282 284 285 282
256 254 252 251 250 248 246 245 245 244 244 244 245 246 247 248 248 248 248 248 248 248 247 247 246 246 245 246 247 248 248 249 250 250 250 249 250 251 251 252 253 254 255 253 250 249 248 248 250 252 254 256 258 259 260 261 263 266 269 271 272 272 271 268 269 274 278 279 277 275 276 278 280 281 282 281 279 279 282 285 286 287 289 289 285
256 255 254 253 252 250 248 246 245 244 244 243 243 244 245 246 247 248 248 248 248 248 248 248 247 247 246 246 246 247 248 249 250 250 249 249 250 251 252 252 252 253 254 253 250 249 250 250 251 253 256 258 260 263 265 266 267 269 271 271 273 274 271 266 267 272 275 274 273 275 277 279 281 281 282 285 285 283 283 285 286 288 289 290 288
255 255 254 253 253 252 250 248 246 245 244 243 243 243 243 244 245 246 247 247 247 248 248 249 248 248 247 246 246 247 248 248 250 251 250 249 249 250 252 252 252 253 254 252 248 249 251 252 251 253 256 258 260 262 265 266 267 268 269 269 270 271 269 265 265 268 270 270 271 274 277 280 281 280 281 282 282 282 283 283 285 286 287 288 288
253 253 253 253 253 253 252 251 248 246 244 243 242 242 242 243 243 244 246 246 246 247 247 248 249 249 248 247 247 248 247 247 249 251 251 250 249 249 251 252 252 253 254 250 244 245 250 252 252 253 256 258 259 260 262 264 265 267 267 267 269 270 268 266 265 267 268 270 272 275 277 280 280 280 280 279 279 280 282 283 283 284 284 285 286
250 250 250 250 250 251 251 251 250 248 246 244 243 242 242 242 242 243 244 245 245 246 246 247 248 248 248 248 247 248 248 248 248 250 252 252 251 250 250 252 252 254 254 251 245 244 248 251 252 254 255 257 259 260 261 263 265 266 266 267 268 269 268 268 269 271 272 274 275 276 278 280 280 280 279 278 278 278 279 281 282 282 282 283 284
249 248 248 248 248 248 248 249 250 249 248 246 244 242 241 241 241 241 242 243 244 245 245 245 246 247 248 248 248 248 248 249 249 249 251 252 252 251 251 252 252 253 254 253 250 249 250 252 253 254 256 258 260 262 263 264 265 265 266 267 268 269 268 268 270 273 274 275 275 276 278 279 280 280 279 278 278 278 280 281 281 280 280 281 281
248 247 246 245 245 245 245 246 248 248 248 247 246 243 241 240 239 240 240 241 242 243 244 244 245 246 247 248 248 248 248 249 250 250 251 252 253 252 251 251 251 252 254 255 255 254 253 254 254 255 257 259 261 262 263 264 265 266 267 267 269 269 268 268 269 271 273 275 276 277 278 278 279 280 280 280 280 281 282 282 281 281 282 283 283
249 247 245 244 243 243 243 244 245 247 248 248 247 245 242 240 239 238 238 239 240 241 242 243 244 244 245 246 248 248 248 248 250 251 252 252 253 253 252 251 251 251 253 256 257 255 253 254 257 257 257 258 259 260 261 262 264 265 267 268 269 269 268 267 268 269 271 273 275 277 278 278 279 279 280 282 283 283 284 285 284 283 285 286 286
252 250 248 245 243 241 241 242 243 245 247 247 247 246 244 241 239 237 237 237 238 239 240 241 242 243 243 244 246 247 247 247 248 251 253 253 252 253 254 253 251 251 253 255 255 252 250 252 254 255 254 254 255 256 258 259 261 263 265 266 267 267 267 267 267 268 270 272 274 275 276 278 278 279 280 281 283 283 284 283 283 283 285 286 286
253 252 251 248 246 243 241 241 241 243 244 245 246 246 245 243 240 238 236 235 235 236 238 239 240 241 242 243 244 245 246 247 247 250 253 253 252 253 253 252 250 250 252 252 250 248 246 247 248 249 250 251 253 255 258 260 261 263 264 265 266 267 268 268 269 270 271 272 274 275 276 277 278 279 279 280 281 282 282 282 281 282 283 284 284
255 254 253 252 249 246 243 240 240 240 242 243 244 244 244 244 241 239 236 234 233 234 235 236 237 238 240 241 242 243 244 246 246 247 250 252 253 253 251 248 246 245 246 248 247 244 242 243 244 246 249 252 254 257 260 262 263 264 266 266 267 269 269 270 271 272 273 274 275 276 277 277 278 279 280 280 281 281 281 281 281 281 281 282 283
258 257 257 255 251 247 243 240 239 238 239 240 241 242 243 244 243 240 237 234 232 232 232 234 235 236 237 239 240 241 242 244 245 245 246 248 250 249 246 245 245 243 244 246 247 243 239 240 244 248 251 254 256 258 260 261 263 264 266 267 268 268 269 270 271 272 273 274 275 276 277 277 278 279 279 280 280 280 280 280 281 281 281 281 281
260 259 259 258 254 248 242 239 237 236 237 238 239 240 242 245 245 242 238 234 232 230 230 231 232 234 235 237 238 239 240 242 243 243 242 243 244 243 242 244 246 245 244 246 248 245 241 238 239 242 245 248 251 254 256 259 261 264 265 267 268 269 269 270 271 272 273 274 274 275 276 277 277 278 279 279 279 279 279 279 280 279 277 276 276
Height
5934 5935 5937 5939 5940 5941 5942 5943 5945 5946 5948 5949 5950 5951 5953 5954 5955 5956 5957 5958 5959 5960 5961 5962 5963 5963 5964 5965 5966 5966 5967 5967 5968 5968 5969 5969 5970 5970 5971 5972 5972 5973 5973 5974 5974 5974 5975 5976 5977 5978 5979 5979 5980 5981 5982 5982 5982 5982 5983 5983 5983 5983 5984 5984 5985 5985 5986 5986 5987 5987 5987 5987 5987 5987 5987 5987 5987 5986 5986 5985 5985 5984 5984 5984 5984
5932 5934 5936 5938 5940 5941 5942 5943 5944 5946 5947 5948 5949 5950 5952 5953 5954 5955 5956 5957 5958 5959 5960 5961 5962 5962 5963 5964 5964 5965 5966 5967 5967 5968 5968 5969 5969 5970 5971 5971 5972 5973 5973 5973 5974 5974 5975 5975 5976 5977 5977 5978 5979 5980 5981 5982 5982 5983 5983 5983 5983 5983 5983 5984 5985 5985 5986 5986 5986 5987 5987 5987 5987 5987 5987 5987 5986 5986 5985 5985 5984 5984 5984 5983 5983
5929 5931 5933 5936 5938 5939 5941 5942 5943 5945 5947 5948 5949 5949 5950 5952 5953 5954 5955 5956 5957 5958 5959 5960 5961 5961 5962 5963 5963 5964 5965 5965 5966 5967 5968 5968 5969 5970 5970 5971 5972 5972 5973 5973 5974 5974 5974 5975 5975 5976 5976 5977 5978 5979 5980 5981 5982 5982 5983 5983 5983 5983 5983 5984 5984 5985 5985 5986 5986 5986 5986 5986 5986 5986 5986 5986 5986 5985 5985 5985 5984 5984 5983 5982 5982
5927 5929 5931 5933 5935 5937 5939 5940 5942 5943 5945 5947 5948 5948 5949 5950 5952 5953 5954 5955 5956 5957 5957 5959 5959 5960 5961 5961 5962 5963 5964 5964 5965 5966 5967 5968 5969 5969 5970 5970 5971 5972 5972 5973 5973 5974 5974 5974 5974 5975 5975 5976 5977 5978 5979 5980 5981 5982 5982 5982 5983 5983 5983 5984 5984 5985 5985 5985 5985 5986 5986 5986 5986 5986 5985 5985 5985 5985 5984 5984 5983 5983 5982 5981 5981
5925 5926 5928 5930 5932 5934 5936 5938 5939 5941 5943 5944 5946 5947 5948 5949 5951 5952 5953 5954 5955 5956 5956 5957 5958 5959 5959 5960 5961 5962 5963 5963 5964 5965 5966 5967 5968 5968 5969 5970 5970 5971 5972 5972 5973 5973 5974 5974 5974 5974 5975 5975 5976 5977 5977 5978 5979 5980 5981 5982 5982 5983 5983 5983 5984 5984 5984 5985 5985 5985 5985 5985 5985 5985 5985 5985 5984 5984 5984 5983 5983 5982 5981 5980 5979
5922 5923 5925 5927 5930 5932 5933 5936 5937 5939 5940 5942 5943 5945 5946 5948 5949 5950 5951 5953 5954 5955 5955 5956 5957 5958 5958 5959 5960 5960 5961 5962 5963 5964 5965 5966 5967 5967 5968 5969 5969 5970 5971 5972 5972 5973 5973 5974 5974 5974 5974 5975 5975 5976 5977 5977 5978 5979 5979 5980 5981 5982 5982 5983 5983 5983 5983 5983 5983 5983 5983 5983 5983 5983 5983 5983 5983 5982 5982 5981 5981 5980 5980 5979 5977
5920 5921 5924 5925 5927 5929 5931 5933 5935 5937 5938 5940 5941 5943 5945 5946 5947 5948 5950 5951 5953 5953 5954 5955 5956 5956 5957 5958 5959 5959 5960 5961 5962 5963 5964 5965 5965 5966 5967 5967 5968 5969 5970 5971 5972 5972 5973 5973 5973 5974 5974 5975 5975 5976 5976 5976 5977 5977 5978 5979 5979 5980 5981 5981 5982 5982 5982 5982 5982 5982 5982 5982 5982 5982 5982 5982 5981 5980 5980 5979 5979 5978 5977 5977 5976
5919 5920 5922 5923 5926 5928 5930 5931 5933 5934 5936 5938 5939 5941 5943 5944 5946 5947 5948 5950 5951 5952 5953 5953 5954 5955 5956 5957 5958 5959 5959 5960 5961 5962 5962 5963 5964 5965 5965 5966 5967 5968 5969 5970 5970 5971 5972 5972 5973 5973 5973 5974 5975 5975 5975 5976 5976 5977 5977 5978 5978 5979 5979 5980 5980 5981 5981 5981 5980 5980 5980 5981 5981 5980 5980 5980 5980 5979 5978 5978 5977 5976 5975 5974 5974
5916 5917 5919 5921 5923 5926 5927 5929 5930 5932 5934 5935 5937 5939 5940 5942 5944 5945 5947 5948 5949 5950 5951 5952 5953 5954 5955 5956 5957 5958 5959 5959 5960 5960 5961 5961 5962 5963 5964 5965 5966 5967 5967 5968 5969 5970 5970 5971 5971 5972 5973 5973 5974 5974 5975 5975 5975 5976 5976 5976 5977 5978 5978 5979 5979 5979 5979 5979 5979 5979 5979 5979 5979 5979 5979 5979 5978 5977 5977 5976 5975 5974 5974 5973 5972
5913 5914 5916 5918 5920 5922 5924 5925 5927 5930 5931 5933 5934 5935 5937 5939 5940 5942 5944 5946 5947 5949 5950 5951 5952 5953 5954 5955 5956 5957 5958 5959 5959 5960 5960 5960 5961 5962 5963 5964 5964 5965 5966 5967 5968 5968 5969 5969 5970 5971 5972 5972 5973 5973 5974 5974 5975 5975 5975 5975 5976 5976 5977 5977 5978 5978 5978 5978 5978 5978 5978 5978 5978 5978 5978 5978 5977 5976 5975 5975 5974 5973 5973 5972 5971
5910 5912 5913 5914 5916 5918 5920 5921 5923 5925 5927 5929 5930 5931 5933 5935 5937 5939 5941 5943 5944 5946 5948 5950 5951 5952 5953 5954 5955 5956 5957 5958 5959 5959 5959 5959 5960 5961 5962 5962 5963 5964 5965 5966 5966 5967 5968 5968 5969 5970 5970 5971 5971 5972 5973 5973 5973 5974 5974 5974 5974 5975 5975 5976 5976 5976 5976 5976 5976 5976 5976 5976 5976 5977 5976 5976 5975 5975 5974 5973 5972 5972 5971 5971 5970
5908 5909 5911 5912 5913 5914 5914 5916 5918 5920 5922 5923 5924 5926 5928 5931 5933 5935 5937 5939 5941 5943 5945 5947 5949 5950 5951 5952 5953 5954 5955 5956 5957 5958 5958 5958 5959 5960 5961 5962 5962 5963 5964 5964 5965 5966 5966 5967 5967 5968 5969 5970 5970 5971 5971 5972 5972 5972 5973 5973 5973 5974 5974 5974 5974 5975 5975 5975 5975 5975 5975 5975 5975 5974 5974 5974 5973 5973 5972 5971 5971 5970 5969 5969 5968
5906 5907 5908 5909 5910 5910 5911 5912 5914 5915 5917 5919 5919 5920 5923 5926 5928 5930 5932 5934 5936 5939 5942 5944 5946 5947 5948 5949 5951 5952 5952 5953 5955 5956 5956 5956 5957 5959 5960 5961 5961 5962 5963 5963 5964 5964 5965 5965 5966 5967 5967 5968 5968 5969 5970 5970 5970 5971 5971 5972 5972 5972 5973 5973 5973 5973 5973 5973 5973 5973 5973 5973 5972 5972 5972 5972 5971 5971 5970 5969 5969 5968 5967 5966 5966
5903 5904 5904 5905 5905 5905 5908 5912 5914 5916 5917 5918 5918 5919 5920 5921 5923 5926 5928 5930 5932 5935 5938 5940 5942 5944 5945 5947 5948 5949 5950 5951 5953 5954 5954 5954 5955 5956 5958 5959 5960 5961 5961 5962 5962 5963 5963 5964 5964 5965 5965 5966 5967 5967 5967 5968 5969 5969 5970 5970 5971 5971 5971 5972 5972 5972 5972 5972 5972 5971 5971 5970 5970 5970 5969 5969 5969 5968 5968 5967 5966 5966 5965 5964 5963
5900 5900 5900 5900 5900 5901 5904 5909 5913 5915 5916 5918 5919 5920 5920 5920 5920 5922 5924 5927 5929 5932 5934 5936 5938 5941 5943 5944 5946 5947 5948 5948 5950 5951 5952 5951 5952 5953 5955 5957 5958 5959 5960 5960 5960 5960 5961 5961 5962 5963 5963 5964 5964 5965 5965 5965 5966 5967 5967 5968 5968 5969 5970 5970 5970 5970 5970 5971 5970 5970 5969 5968 5968 5967 5967 5966 5966 5966 5966 5965 5964 5963 5963 5962 5961
5895 5896 5897 5896 5896 5896 5900 5905 5909 5911 5912 5914 5917 5918 5920 5921 5920 5920 5921 5923 5926 5928 5930 5932 5935 5937 5939 5941 5942 5944 5945 5945 5946 5948 5949 5949 5949 5951 5953 5954 5956 5957 5957 5958 5958 5958 5959 5959 5960 5960 5961 5961 5962 5962 5962 5962 5963 5964 5965 5966 5966 5967 5968 5968 5968 5968 5968 5969 5969 5968 5967 5966 5966 5965 5964 5964 5964 5964 5964 5963 5961 5960 5960 5960 5958
5891 5892 5893 5893 5893 5894 5896 5901 5905 5907 5907 5909 5910 5912 5914 5916 5917 5918 5919 5919 5921 5923 5926 5928 5930 5932 5935 5936 5938 5939 5940 5941 5942 5943 5944 5945 5946 5948 5950 5951 5952 5954 5955 5955 5955 5956 5956 5956 5957 5957 5958 5958 5959 5959 5959 5959 5960 5961 5962 5963 5963 5964 5965 5965 5965 5966 5966 5966 5966 5966 5966 5965 5964 5963 5962 5961 5961 5960 5961 5960 5958 5957 5957 5957 5956
5887 5888 5888 5889 5890 5892 5893 5896 5900 5902 5903 5904 5905 5906 5908 5910 5912 5914 5915 5916 5917 5918 5921 5923 5925 5928 5929 5931 5932 5934 5935 5936 5937 5938 5939 5940 5941 5943 5945 5947 5949 5950 5951 5952 5953 5953 5953 5953 5954 5954 5955 5955 5955 5955 5956 5956 5956 5957 5959 5960 5961 5962 5962 5961 5961 5962 5963 5963 5963 5963 5963 5963 5961 5960 5960 5959 5958 5957 5956 5956 5955 5954 5954 5954 5953
5882 5883 5884 5885 5886 5887 5890 5892 5894 5897 5898 5899 5900 5901 5903 5906 5908 5909 5911 5913 5913 5913 5916 5918 5920 5922 5924 5925 5927 5929 5930 5931 5933 5934 5935 5935 5937 5938 5940 5942 5944 5946 5947 5948 5949 5950 5950 5951 5951 5951 5951 5951 5951 5951 5952 5952 5952 5953 5954 5956 5958 5959 5959 5957 5957 5958 5959 5960 5960 5960 5960 5959 5959 5958 5956 5955 5954 5953 5953 5952 5951 5951 5951 5951 5950
5877 5879 5880 5881 5881 5883 5885 5888 5890 5892 5894 5895 5896 5896 5898 5902 5905 5906 5907 5909 5910 5910 5912 5914 5916 5918 5919 5921 5923 5925 5926 5927 5929 5931 5932 5932 5933 5934 5935 5937 5939 5941 5942 5943 5945 5946 5947 5948 5948 5947 5947 5947 5947 5948 5948 5948 5949 5949 5950 5952 5955 5955 5954 5953 5953 5954 5955 5956 5957 5957 5956 5956 5955 5954 5953 5951 5950 5950 5949 5948 5948 5947 5947 5947 5946
5872 5874 5875 5876 5877 5878 5881 5883 5885 5887 5890 5891 5892 5893 5893 5895 5898 5900 5902 5903 5906 5907 5909 5910 5912 5913 5914 5916 5918 5920 5921 5923 5924 5926 5927 5928 5929 5930 5932 5934 5935 5935 5936 5938 5940 5942 5943 5944 5944 5944 5943 5943 5943 5944 5945 5945 5945 5946 5947 5949 5950 5950 5949 5949 5949 5949 5950 5951 5952 5953 5953 5952 5950 5949 5948 5947 5947 5946 5945 5945 5944 5944 5943 5943 5942
5867 5869 5870 5872 5873 5874 5876 5878 5880 5882 5884 5886 5888 5889 5890 5891 5892 5894 5896 5898 5901 5904 5905 5906 5908 5909 5911 5912 5914 5916 5917 5918 5920 5921 5922 5924 5925 5925 5927 5929 5931 5931 5932 5933 5935 5936 5938 5939 5940 5940 5940 5940 5940 5940 5941 5942 5942 5943 5944 5945 5945 5945 5944 5944 5944 5945 5946 5947 5948 5948 5948 5947 5946 5945 5944 5943 5942 5942 5942 5941 5941 5940 5940 5939 5939
5861 5863 5865 5867 5868 5869 5871 5873 5875 5877 5879 5881 5883 5884 5886 5887 5889 5891 5892 5895 5898 5900 5900 5902 5903 5905 5906 5908 5909 5910 5912 5913 5914 5916 5918 5919 5920 5921 5922 5923 5925 5926 5928 5929 5930 5931 5932 5934 5935 5935 5936 5936 5936 5937 5937 5938 5939 5941 5941 5941 5941 5940 5940 5940 5941 5941 5941 5942 5942 5943 5943 5942 5941 5940 5939 5939 5938 5937 5938 5938 5938 5936 5935 5935 5935
5855 5857 5859 5861 5863 5864 5866 5868 5870 5871 5874 5876 5879 5880 5881 5883 5885 5887 5889 5891 5893 5895 5895 5897 5898 5899 5901 5903 5905 5906 5907 5908 5909 5911 5913 5915 5916 5916 5917 5918 5919 5920 5922 5924 5925 5926 5927 5928 5929 5931 5932 5933 5933 5933 5933 5935 5936 5937 5937 5936 5936 5937 5937 5937 5937 5936 5937 5937 5937 5938 5938 5937 5936 5936 5935 5934 5934 5933 5933 5933 5934 5933 5932 5931 5931
5848 5851 5853 5855 5857 5859 5860 5862 5864 5866 5869 5872 5874 5876 5877 5878 5880 5882 5884 5886 5889 5890 5890 5891 5893 5894 5896 5898 5900 5901 5902 5903 5905 5907 5909 5910 5911 5912 5912 5913 5914 5914 5917 5919 5921 5921 5922 5923 5925 5927 5928 5928 5928 5928 5929 5930 5931 5932 5932 5932 5932 5933 5933 5933 5932 5932 5932 5933 5933 5933 5933 5932 5932 5931 5931 5930 5929 5929 5929 5929 5929 5929 5928 5928 5927
5842 5844 5846 5849 5851 5853 5855 5857 5859 5861 5863 5866 5868 5870 5872 5873 5875 5877 5879 5881 5883 5884 5885 5886 5887 5889 5891 5893 5895 5896 5897 5898 5901 5903 5904 5904 5905 5906 5906 5907 5908 5909 5911 5913 5915 5916 5918 5919 5920 5922 5923 5924 5924 5925 5925 5926 5927 5928 5928 5928 5928 5928 5928 5928 5928 5928 5928 5928 5928 5928 5928 5928 5927 5927 5927 5926 5926 5925 5925 5925 5925 5925 5924 5923 5922
5835 5837 5839 5842 5844 5847 5849 5851 5853 5855 5857 5860 5863 5865 5867 5868 5870 5872 5874 5875 5877 5879 5879 5880 5882 5885 5887 5888 5890 5891 5892 5894 5896 5897 5897 5898 5899 5900 5900 5901 5902 5903 5906 5908 5909 5910 5912 5914 5915 5917 5919 5920 5921 5922 5923 5923 5923 5924 5923 5923 5923 5923 5924 5924 5924 5924 5924 5924 5924 5924 5924 5923 5923 5923 5923 5922 5922 5921 5920 5921 5921 5921 5920 5919 5918
5827 5829 5832 5834 5837 5839 5842 5845 5847 5849 5851 5854 5857 5859 5861 5863 5865 5867 5869 5870 5872 5873 5874 5875 5878 5880 5882 5884 5885 5886 5888 5889 5890 5891 5891 5893 5896 5896 5897 5898 5898 5898 5901 5903 5904 5905 5907 5909 5912 5914 5916 5917 5918 5919 5919 5919 5919 5919 5919 5919 5919 5919 5919 5920 5920 5920 5920 5920 5920 5920 5920 5920 5919 5919 5919 5918 5919 5918 5917 5916 5917 5917 5916 5915 5915
5819 5822 5824 5826 5829 5832 5835 5837 5840 5842 5846 5848 5850 5852 5855 5857 5859 5861 5863 5865 5866 5868 5869 5871 5874 5875 5877 5879 5881 5882 5883 5884 5885 5885 5887 5889 5891 5891 5892 5894 5895 5895 5896 5897 5898 5901 5903 5905 5908 5911 5913 5914 5914 5914 5914 5914 5914 5914 5914 5915 5915 5915 5916 5916 5916 5917 5917 5916 5916 5916 5916 5916 5915 5915 5914 5914 5914 5914 5913 5912 5912 5912 5911 5910 5910
5812 5815 5816 5818 5821 5824 5827 5830 5832 5836 5839 5841 5844 5847 5849 5851 5853 5855 5857 5859 5861 5862 5864 5867 5868 5869 5872 5874 5876 5877 5879 5879 5879 5880 5882 5883 5884 5884 5885 5886 5888 5890 5891 5893 5894 5897 5898 5900 5903 5907 5909 5909 5909 5909 5909 5909 5909 5910 5910 5910 5911 5911 5912 5912 5912 5913 5913 5912 5912 5912 5912 5912 5912 5911 5910 5910 5910 5909 5908 5907 5907 5907 5906 5905 5905
5805 5808 5809 5811 5813 5816 5819 5822 5825 5828 5831 5834 5837 5840 5843 5845 5847 5849 5851 5853 5855 5857 5859 5861 5863 5864 5866 5869 5871 5872 5874 5875 5875 5875 5876 5877 5879 5879 5879 5880 5882 5885 5888 5890 5893 5894 5894 5895 5898 5902 5904 5905 5905 5904 5904 5904 5905 5906 5906 5906 5907 5907 5908 5908 5908 5908 5909 5909 5909 5908 5908 5908 5907 5907 5906 5905 5904 5903 5902 5902 5902 5902 5901 5900 5899
5796 5800 5802 5804 5806 5807 5810 5814 5817 5820 5823 5827 5830 5833 5836 5839 5841 5843 5846 5848 5850 5852 5854 5856 5858 5859 5861 5864 5866 5867 5869 5870 5870 5871 5871 5871 5874 5876 5875 5876 5880 5884 5886 5888 5891 5892 5891 5891 5893 5896 5899 5901 5900 5900 5900 5900 5901 5901 5902 5902 5903 5903 5904 5904 5904 5904 5904 5904 5904 5904 5904 5903 5903 5902 5901 5900 5899 5898 5897 5897 5896 5897 5896 5895 5894
5787 5791 5794 5797 5799 5800 5802 5805 5808 5811 5815 5818 5821 5825 5828 5832 5834 5837 5839 5842 5844 5846 5848 5850 5852 5854 5856 5858 5860 5862 5863 5864 5865 5867 5867 5866 5869 5871 5870 5872 5877 5882 5883 5885 5887 5887 5887 5887 5888 5891 5894 5896 5896 5895 5895 5896 5896 5897 5897 5898 5898 5899 5899 5899 5899 5899 5900 5899 5899 5899 5899 5898 5897 5897 5896 5895 5895 5894 5893 5893 5892 5892 5891 5891 5890
5777 5781 5785 5788 5790 5793 5795 5797 5799 5802 5805 5809 5812 5816 5820 5824 5827 5830 5833 5835 5838 5840 5842 5844 5846 5848 5850 5853 5854 5856 5858 5858 5860 5862 5863 5862 5863 5865 5866 5868 5873 5877 5878 5879 5881 5882 5882 5882 5884 5886 5889 5890 5890 5890 5890 5891 5892 5892 5893 5893 5894 5894 5894 5894 5894 5894 5894 5893 5893 5893 5892 5892 5892 5892 5892 5891 5891 5890 5890 5890 5888 5887 5887 5886 5885
5767 5771 5774 5777 5780 5784 5787 5789 5791 5794 5796 5798 5802 5807 5811 5815 5819 5823 5825 5828 5831 5834 5836 5838 5839 5841 5844 5847 5849 5850 5852 5853 5855 5856 5857 5857 5858 5859 5861 5864 5868 5872 5873 5874 5875 5876 5877 5877 5879 5882 5883 5884 5885 5885 5885 5886 5886 5887 5888 5889 5889 5889 5889 5888 5888 5889 5889 5888 5886 5884 5883 5883 5883 5884 5885 5886 5885 5885 5885 5885 5884 5883 5882 5881 5880
5757 5761 5763 5766 5770 5774 5777 5780 5783 5785 5787 5789 5792 5796 5801 5806 5810 5814 5817 5820 5823 5826 5829 5831 5833 5835 5838 5841 5843 5844 5845 5847 5849 5851 5852 5852 5853 5854 5856 5859 5862 5865 5868 5870 5871 5872 5872 5873 5875 5876 5877 5878 5878 5879 5879 5880 5881 5882 5883 5883 5883 5883 5882 5882 5882 5881 5880 5878 5877 5875 5877 5879 5881 5881 5882 5882 5882 5880 5880 5880 5879 5878 5877 5875 5874
5745 5750 5753 5756 5759 5762 5766 5770 5773 5776 5778 5780 5783 5787 5792 5796 5800 5804 5808 5812 5815 5819 5822 5824 5826 5829 5831 5833 5835 5837 5839 5841 5843 5845 5847 5847 5848 5849 5851 5853 5855 5857 5860 5864 5867 5868 5868 5868 5869 5869 5870 5871 5872 5873 5874 5874 5875 5876 5876 5876 5876 5876 5876 5876 5874 5871 5871 5872 5874 5875 5878 5880 5880 5879 5878 5878 5877 5875 5874 5874 5874 5873 5872 5870 5869
5733 5738 5742 5745 5747 5750 5755 5759 5763 5766 5769 5772 5775 5778 5782 5785 5789 5793 5798 5802 5806 5810 5814 5817 5819 5821 5824 5826 5828 5831 5834 5836 5837 5839 5841 5842 5842 5843 5845 5847 5849 5851 5853 5855 5858 5861 5862 5862 5862 5863 5863 5865 5866 5867 5867 5868 5868 5869 5869 5869 5869 5870 5870 5869 5865 5864 5868 5871 5872 5873 5874 5874 5873 5872 5871 5870 5870 5869 5867 5867 5867 5867 5866 5865 5864
5722 5726 5730 5733 5735 5739 5743 5748 5751 5755 5759 5762 5766 5769 5772 5774 5778 5783 5788 5792 5796 5800 5804 5808 5811 5813 5816 5819 5822 5825 5827 5829 5830 5832 5834 5835 5836 5838 5839 5841 5843 5844 5845 5847 5849 5852 5854 5856 5856 5856 5857 5859 5860 5860 5861 5862 5862 5863 5863 5863 5863 5864 5865 5862 5859 5861 5866 5867 5865 5865 5867 5867 5867 5866 5865 5865 5865 5864 5862 5861 5860 5860 5859 5859 5858
5712 5714 5717 5720 5723 5726 5731 5735 5739 5743 5747 5751 5755 5758 5761 5764 5767 5772 5777 5782 5787 5791 5795 5799 5802 5805 5808 5812 5815 5818 5820 5822 5823 5824 5826 5828 5829 5831 5833 5835 5837 5838 5839 5840 5842 5845 5847 5849 5850 5850 5851 5853 5853 5854 5855 5857 5858 5857 5857 5857 5858 5859 5858 5855 5853 5856 5860 5860 5859 5860 5860 5861 5860 5859 5859 5859 5858 5857 5855 5854 5853 5852 5851 5850 5850
5701 5703 5706 5709 5712 5715 5719 5723 5727 5731 5735 5739 5743 5747 5751 5754 5758 5761 5766 5771 5777 5781 5785 5789 5793 5796 5800 5805 5808 5810 5812 5814 5816 5817 5819 5821 5823 5825 5826 5828 5830 5832 5833 5834 5836 5838 5840 5841 5843 5844 5845 5846 5847 5847 5849 5850 5850 5850 5850 5850 5851 5852 5851 5849 5849 5852 5853 5852 5852 5853 5853 5853 5853 5853 5853 5853 5852 5849 5849 5848 5847 5845 5844 5842 5840
5690 5692 5696 5699 5701 5705 5708 5711 5714 5718 5722 5726 5731 5736 5740 5744 5747 5751 5756 5761 5766 5771 5775 5779 5783 5787 5791 5796 5800 5801 5804 5807 5809 5811 5812 5814 5816 5818 5820 5821 5823 5825 5826 5828 5830 5831 5833 5834 5835 5837 5838 5839 5840 5841 5842 5843 5843 5843 5844 5844 5844 5844 5843 5842 5843 5845 5844 5843 5844 5845 5846 5847 5847 5846 5846 5846 5845 5843 5842 5841 5840 5838 5836 5835 5833
5678 5681 5685 5688 5690 5693 5697 5699 5702 5705 5710 5714 5719 5724 5728 5732 5737 5741 5746 5750 5755 5760 5765 5770 5774 5777 5782 5787 5791 5792 5795 5799 5802 5804 5805 5807 5809 5811 5813 5814 5816 5818 5820 5821 5823 5825 5826 5827 5828 5829 5831 5832 5833 5834 5835 5835 5836 5836 5836 5837 5837 5837 5836 5835 5835 5835 5835 5836 5837 5838 5839 5839 5839 5840 5840 5839 5838 5837 5836 5835 5833 5830 5829 5828 5826
5667 5670 5674 5677 5680 5683 5686 5688 5690 5694 5698 5702 5706 5711 5716 5721 5726 5730 5735 5740 5745 5749 5754 5760 5764 5768 5772 5777 5781 5784 5787 5790 5793 5796 5798 5799 5801 5803 5806 5808 5809 5811 5813 5814 5816 5817 5819 5820 5821 5823 5824 5825 5826 5827 5827 5828 5829 5829 5829 5830 5831 5831 5831 5831 5830 5830 5830 5831 5831 5832 5833 5833 5832 5831 5831 5830 5830 5829 5828 5827 5826 5823 5821 5821 5819
5658 5661 5664 5666 5669 5673 5676 5677 5679 5683 5686 5690 5694 5698 5703 5708 5713 5718 5724 5730 5734 5739 5743 5749 5754 5759 5763 5767 5771 5775 5779 5782 5785 5788 5791 5792 5793 5795 5798 5800 5802 5803 5804 5806 5808 5810 5811 5813 5815 5816 5817 5818 5819 5820 5821 5821 5822 5822 5822 5823 5824 5825 5825 5825 5825 5825 5825 5824 5824 5824 5826 5826 5825 5824 5822 5821 5821 5821 5821 5819 5817 5814 5812 5811 5810
5651 5653 5655 5656 5659 5662 5665 5666 5669 5673 5676 5679 5682 5686 5690 5695 5700 5706 5712 5718 5723 5728 5733 5738 5743 5748 5754 5758 5761 5766 5770 5774 5776 5779 5783 5785 5786 5788 5790 5792 5794 5796 5798 5799 5801 5803 5805 5807 5808 5809 5811 5812 5813 5814 5814 5815 5815 5815 5816 5816 5817 5817 5818 5819 5819 5819 5819 5818 5817 5817 5817 5817 5817 5816 5814 5812 5812 5813 5813 5811 5809 5806 5804 5802 5801
5643 5644 5646 5647 5649 5652 5654 5657 5660 5664 5666 5669 5671 5675 5679 5683 5688 5694 5700 5706 5712 5717 5722 5727 5732 5738 5743 5748 5752 5756 5761 5765 5769 5772 5774 5777 5779 5781 5783 5785 5787 5789 5791 5792 5794 5795 5797 5800 5801 5802 5804 5805 5806 5807 5808 5808 5808 5809 5809 5809 5809 5810 5810 5811 5811 5811 5811 5811 5810 5809 5809 5808 5808 5808 5807 5806 5805 5805 5805 5804 5802 5799 5796 5794 5793
5635 5636 5637 5638 5640 5642 5645 5648 5651 5654 5656 5659 5661 5664 5668 5672 5676 5681 5687 5694 5700 5705 5711 5717 5722 5728 5733 5738 5743 5747 5751 5756 5760 5764 5767 5770 5773 5775 5776 5778 5780 5782 5783 5785 5786 5787 5789 5792 5794 5795 5796 5797 5799 5800 5801 5801 5802 5802 5802 5802 5802 5802 5802 5803 5803 5803 5803 5803 5802 5802 5802 5801 5800 5800 5799 5799 5798 5797 5797 5796 5795 5792 5789 5787 5785
5626 5627 5627 5628 5630 5632 5635 5637 5640 5643 5646 5649 5652 5655 5658 5661 5664 5669 5675 5681 5687 5693 5700 5706 5712 5717 5722 5727 5733 5737 5742 5746 5752 5756 5760 5762 5765 5768 5769 5770 5772 5775 5776 5777 5778 5780 5782 5784 5786 5787 5789 5790 5791 5793 5794 5795 5795 5795 5796 5796 5796 5796 5796 5796 5795 5795 5796 5795 5795 5795 5794 5793 5793 5792 5791 5791 5790 5790 5788 5787 5786 5785 5783 5781 5778
5617 5617 5617 5618 5620 5622 5624 5627 5630 5633 5636 5639 5642 5645 5648 5651 5654 5658 5663 5669 5674 5681 5688 5695 5701 5707 5712 5717 5722 5728 5733 5737 5742 5747 5752 5755 5757 5760 5761 5763 5765 5767 5769 5771 5772 5773 5775 5776 5778 5780 5782 5783 5785 5786 5787 5788 5788 5789 5789 5789 5789 5789 5789 5789 5789 5788 5788 5788 5787 5787 5786 5786 5785 5784 5783 5783 5783 5782 5780 5779 5778 5777 5776 5774 5772
5607 5607 5607 5607 5608 5610 5613 5617 5620 5623 5626 5629 5633 5636 5639 5642 5645 5648 5652 5657 5663 5669 5676 5684 5690 5696 5702 5707 5712 5718 5723 5728 5732 5738 5742 5746 5749 5752 5754 5756 5758 5760 5762 5764 5766 5767 5768 5769 5771 5773 5775 5777 5778 5779 5781 5781 5782 5782 5782 5782 5782 5782 5782 5782 5781 5781 5781 5781 5780 5779 5779 5778 5777 5777 5776 5775 5775 5775 5773 5771 5769 5768 5767 5767 5766